{"data":{"norad_id":68516,"epoch":"2026-05-24T06:12:54.464544Z","epoch_age_seconds":132871,"freshness":"FRESH","line1":"1 68516U 26068J   26144.25896371  .00016298  00000+0  49254-3 0  9998","line2":"2 68516  53.1592 136.9194 0000962  76.9774 283.1336 15.34393360  8532","mean_motion":15.3439336,"eccentricity":9.62e-5,"inclination_deg":53.1592,"raan_deg":136.9194,"arg_perigee_deg":76.9774,"mean_anomaly_deg":283.1336,"bstar":0.00049254,"rev_number":853,"period_min":93.84816420217,"perigee_km":462.06488502792,"apogee_km":463.38106648726,"semimajor_km":6840.8599757576,"source":"CELESTRAK","updated_at":"2026-05-25T13:38:21.954066Z"}}